AQI (35)

Current Conditions for Foresthill, CA. Mostly Cloudy, Dry   
Visibility: 10 miles
Cloud ht: 9,500 ft
Space WX Alerts: CONTINUED ALERT:  Electron 2MeV Integral Flux exceeded 1000pfu ( Latest Alert ) - Issue Time: 2018 Dec 14 1305 UTC

  Summary / Temperature 

Current Temperature
45.9°F
7.7°C
(24/hr Ago)
40.8°F
(Apparent temp)
40.1°F
Cool
Wind Chill Graphs
41.3°F 

45.9°F/ 7.7°C
 --- Virtual Temp: 47.0°F ---

 Temp Rate:

 24/hr Difference:

 Avg Running Temp:

 Todays High:

 Todays Low:

 Y-days High:

 Y-days Low:

 Todays WChill:

 Y-days WChill:

 Evapotranspiration:

+0.2°F/hr 

+5.1°F

46.2°F

46.9°F 5:02am

43.8°F 12:29am

52.5°F 2:06pm

39.7°F 7:27am

36.0°F 1:26am

33.3°F 2:54am

0.009 in

115' Above Ground

 Temperature:

 6'AGL VRS 115'AGL:

 Avg Running Temp:

 Humidity:

 Todays High:

 Todays Low:

 Y-days High:

 Y-days Low:

48.0°F 

+2.1°F

48.0°F

0% 

50.0°F 12:00am

48.0°F 12:43am

59.0°F 3:05pm

44.0°F 2:44am

Temp & Humidity Graphs

  Wind 

Wind Speed

 Calm

Gusting to

 12.0 mph

Wind from ESE

111°  ESE

Calm

 Avg speed:

 Wind Run:

 Peak Gust:

  3.0 mph 

32.0 miles

  22.0 mph 3:56am

  Almanac  

Waxing Crescent
41%
Illuminated
6 days in cycle

 Moonrise:

 Moonset:

 Sunrise:

 Sunset:

 Solar Noon:

12:13pm

11:37pm

7:13am

4:40pm

4:00pm

0min 33s less daylight tomorrow 

  Solar Radiation 

(Current Solar)
  No Sun Light
(Todays High)
 None@12:00am

Rain

 Rain Today:

 Rain Rate (/hr):

 Rain last hour:

 Rain Yesterday:

 This Month:

 Season Total:

8 Days Since Last Rain Day

0.00 in

0.000 in

0.00 in

0.00 in

1.05 in

9.55 in

Updated Time

Updated: 12/14/18  5:44am

(Updated  sec ago)

Humidity & Barometer

 Humidity:

 Wetbulb:

 Dew Point:

 Barometer:

50% 

39.5°F 

28.3°F 

30.143 inHg 

 Baro Trend:  Falling Slowly 
Northern Calif
Preparedness
Fire 
Level 

    UV Index  

(Current UV)
0.0  None
(Todays High) @ 12:00am
0.0   None

National Weather Service Forecast

Overnight

Overnight: Mostly Cloudy
Mostly Cloudy
Friday

Friday: Slight Chance Light Rain
Slight Chance Light Rain
Friday
Night
Friday Night: Rain Showers Likely
Rain Showers Likely
Saturday

Saturday: Slight Chance Rain Showers then Mostly Cloudy
Slight Chance Rain Showers
Saturday
Night
Saturday Night: Mostly Cloudy
Mostly Cloudy
Sunday

Sunday: Rain
Rain
Lo 42 °F Hi 53 °F ↓ Lo 43 °F Hi 53 °F Lo 44 °F Hi 52 °F

Foresthill Probe 2 Stats  
Foresthill Probe 2: is located on Thomas Street
at 3000 feet. The main Foresthill Weather site
is located on Melody ln at the 2860 foot elevation

Light Air
45.4°F
7.4°C
Temp Rate:
+0.5°F
1.0 mph
Gusting to
3.0 mph
(Humidity)
47%
Wind from SE
135°  SE
Updated: 14/12/18 - 05:40:05
 Todays High: 46.3°F 04:39
 Todays Low: 41.9°F 01:25
 Rain Today: 0.00 in
 Season Total: 9.72 in

Foresthill Wx: Monthly,Yearly, Highs and Lows 

Foresthill  
This Weather Data is coming from the main Foresthill
Weather site located on Melody ln at the 2860 foot
elevation
Not Foresthill Probe 2
Weather Data
Month
  High
Month
  Low
Year
High
Year
Low
Temp 53.8°F
12/12/18
31.7°F
12/2/18
93.9°F
8/10/18
21.9°F
2/23/18
Humidity 100%
12/1/18
43%
12/13/18
100%
1/8/18
9%
10/15/18
Heat Index 55.8°F
12/12/18
36.0°F
12/3/18
93.3°F
7/25/18
27.1°F
2/20/18
Wind Chill 53.8°F
12/12/18
19.7°F
12/3/18
93.9°F
8/10/18
9.2°F
2/23/18
Wind Gust 25 mph
12/1/18
0 mph
12/1/18
43 mph
3/1/18
0 mph
1/1/18
Barometer 30.41 in
12/9/18
29.92 in
12/5/18
30.55 in
1/27/18
29.53 in
11/29/18
ET 0.06 in
12/13/18
0.00 in
12/1/18
0.25 in
6/24/18
0.00 in
1/1/18
Dew Point 44.0°F
12/8/18
24.3°F
12/13/18
66.9°F
7/24/18
0.7°F
11/8/18
Pacific Satellite US Radar Satellite Imagery Sacramento,CA.  (click to enlarge)
NWS Weather Forecast - Summary
Updated: Friday, December 14, 2018 - 3:48am PST
Current Interstate Highway Conditions for I-80 & US-50

[I 80: IN THE SAN FRANCISCO BAY AREA - SOLANO CO]
no traffic restrictions are reported for this area.

[I 80: IN THE NORTHERN CALIFORNIA AREA & SIERRA NEVADA]
no traffic restrictions are reported for this area.

[US 50: IN THE SACRAMENTO VALLEY & THE LAKE TAHOE BASIN]
the eastbound connector to northbound sr 99 /in sacramento/ (sacramento co)   Is closed from 11:00pm each night to 5:00am each morning wednesday thru saturday thru 12/15/18 - due to construction - a detour is available
the westbound connector to southbound sr 99 /in sacramento/ (sacramento co)   Is closed from 11:00pm each night to 5:00am each morning 7 days a week thru 12/15/18 - due to construction - a detour is available
NWS Weather Forecast: Overnight and Friday (Updated: Fri, 14-Dec-2018 2:49am PST)
Overnight

Overnight: Mostly Cloudy
Mostly Cloudy

Lo 42 °F
NWS forecast: Mostly cloudy, with a low around 42. Southeast wind around 7 mph.
Friday

Friday: Slight Chance Light Rain
Slight Chance Light Rain

Hi 53 °F ↓
NWS forecast: A slight chance of rain between 10am and 4pm, then rain showers likely. Partly sunny. High near 53, with temperatures falling to around 48 in the afternoon. South southeast wind 7 to 14 mph, with gusts as high as 20 mph. Chance of precipitation is 70%. New rainfall amounts between a tenth and quarter of an inch possible.
YR.NO 10 Day Weather forecast
Last update: 12/13/2018 @ 23:39
Next update: 12/14/2018 @ 12:00
Provided by: 22
      Temperature Precipitation Pressure Wind  
Today
12/14/2018
03:00 06:00 43°F   30.12 inHg Light breeze from east 6 mph
  06:00 12:00 41°F   30.06 inHg Light breeze from east 6 mph
  12:00 18:00 52°F   30.11 inHg Gentle breeze from southwest 8 mph
  18:00 00:00 45°F   30.15 inHg Light air from east-northeast 2 mph
    (Click to enlarge)
meteogram

    Forecast for next 9 days

      Temperature Precip Pressure Wind  
Saturday
12/15/2018
00:00 06:00 41°F   30.15 inHg Light breeze from east 5 mph
  06:00 12:00 36°F   30.10 inHg Light breeze from east-northeast 5 mph
  12:00 18:00 54°F   30.10 inHg Light breeze from southwest 4 mph
  18:00 00:00 45°F   30.08 inHg Light air from east-northeast 3 mph
      Temperature Precip Pressure Wind  
Sunday
12/16/2018
00:00 06:00 37°F   30.11 inHg Light breeze from east 4 mph
  06:00 12:00 43°F   30.06 inHg Light breeze from east 6 mph
  12:00 18:00 54°F 0.07 in 30.02 inHg Light breeze from south 7 mph
  16:00 22:00 50°F 0.25 in 30.00 inHg Gentle breeze from south-southeast 8 mph
  22:00 04:00 43°F 1.03 in 30.01 inHg Gentle breeze from southeast 8 mph
      Temperature Precip Pressure Wind  
Monday
12/17/2018
04:00 10:00 41°F 0.11 in 30.09 inHg Gentle breeze from south-southeast 12 mph
  10:00 16:00 43°F   30.18 inHg Light breeze from south-southeast 7 mph
  16:00 22:00 45°F   30.19 inHg Light air from south-southwest 3 mph
  22:00 04:00 34°F   30.25 inHg Light breeze from east-northeast 5 mph
      Temperature Precip Pressure Wind  
Tuesday
12/18/2018
04:00 10:00 36°F   30.24 inHg Light air from east-northeast 3 mph
  10:00 16:00 45°F   30.33 inHg Light air from east 2 mph
  16:00 22:00 46°F   30.29 inHg Light air from west-southwest 2 mph
  22:00 04:00 36°F   30.31 inHg Light air from east-northeast 2 mph
      Temperature Precip Pressure Wind  
Wednesday
12/19/2018
04:00 10:00 34°F   30.26 inHg Light breeze from east-northeast 4 mph
  10:00 16:00 52°F   30.26 inHg Light air from southwest 1 mph
  16:00 22:00 52°F   30.16 inHg Light air from south-southwest 1 mph
  22:00 04:00 37°F   30.12 inHg Light breeze from east-northeast 4 mph
      Temperature Precip Pressure Wind  
Thursday
12/20/2018
04:00 10:00 34°F   30.08 inHg Light air from east-northeast 3 mph
  10:00 16:00 54°F   30.07 inHg Light breeze from southeast 4 mph
  16:00 22:00 50°F   30.02 inHg Light air from south-southwest 2 mph
  22:00 04:00 45°F 0.07 in 30.05 inHg Light breeze from east-southeast 4 mph
      Temperature Precip Pressure Wind  
Friday
12/21/2018
04:00 10:00 41°F 0.12 in 30.07 inHg Light breeze from east-northeast 5 mph
  10:00 16:00 48°F   30.10 inHg Light air from west 1 mph
  16:00 22:00 48°F   30.06 inHg Light air from west-southwest 3 mph
  22:00 04:00 36°F   30.10 inHg Light air from east-northeast 3 mph
      Temperature Precip Pressure Wind  
Saturday
12/22/2018
04:00 10:00 36°F   30.06 inHg Light breeze from east 4 mph
  10:00 16:00 50°F 0.08 in 30.10 inHg Light breeze from south-southwest 5 mph
  16:00 22:00 41°F 0.17 in 30.08 inHg Gentle breeze from west-southwest 8 mph
  22:00 04:00 37°F 0.17 in 30.12 inHg Light breeze from east-southeast 4 mph
      Temperature Precip Pressure Wind  
Sunday
12/23/2018
04:00 10:00 36°F 0.20 in 30.11 inHg Gentle breeze from southeast 8 mph
  10:00 16:00 37°F 0.07 in 30.23 inHg Light breeze from south-southeast 7 mph
How Close Are We To this Month's Temperature Record ?
Updated Friday, Dec 14, 2018- 5:40:01 AM

Current Temperature: 45.9°F

December's High: Temperature Record 65.8°F - Set on Tue, Dec 17, 2013 - 1:22:00 PM
We are currently 19.9°F Less than this Month's record High

December's Low: Temperature Record 20.2°F - Set on Sun, Dec 8, 2013 - 7:26:00 AM
We are currently 25.7°F More than this Month's record Low

Weather History For Friday, December 14, 2018


On this Day - In Weather History ...
Data courtesy of weatherforyou.com
powered by Cumulus v1.9.3 (1059)
Ambient Weather VWS v14.00
Top Contact Website Map Copyright © 2007 - 2018 Foresthillweather.com Never base important decisions on this or any weather information obtained from the Internet